TimeMDT,TemperatureF,Dew PointF,Humidity,Sea Level PressureIn,VisibilityMPH,Wind Direction,Wind SpeedMPH,Gust SpeedMPH,PrecipitationIn,Events,Conditions,WindDirDegrees,DateUTC
12:51 AM,60.1,46.9,62,29.97,-9999.0,South,8.1,-,N/A,,Unknown,170,2013-09-05 06:51:00
1:51 AM,57.0,46.9,69,29.94,-9999.0,SE,3.5,-,N/A,,Unknown,130,2013-09-05 07:51:00
2:51 AM,57.0,46.9,69,29.92,-9999.0,ESE,8.1,-,N/A,,Unknown,110,2013-09-05 08:51:00
3:51 AM,57.0,46.9,69,29.93,-9999.0,SSE,6.9,-,N/A,,Unknown,150,2013-09-05 09:51:00
4:51 AM,57.0,46.9,69,29.92,-9999.0,ESE,5.8,-,N/A,,Unknown,120,2013-09-05 10:51:00
5:51 AM,50.0,45.0,83,29.95,-9999.0,Calm,Calm,-,N/A,,Unknown,0,2013-09-05 11:51:00
6:51 AM,51.1,48.0,89,29.98,-9999.0,Variable,3.5,-,0.03,,Unknown,0,2013-09-05 12:51:00
7:51 AM,51.1,50.0,96,30.03,-9999.0,East,3.5,-,0.02,,Unknown,100,2013-09-05 13:51:00
8:51 AM,55.0,51.1,86,30.01,-9999.0,South,8.1,-,0.08,,Unknown,170,2013-09-05 14:51:00
9:51 AM,57.0,53.1,87,30.02,-9999.0,North,3.5,-,N/A,,Unknown,360,2013-09-05 15:51:00
10:51 AM,57.9,54.0,87,30.03,-9999.0,NW,4.6,-,N/A,,Unknown,320,2013-09-05 16:51:00
11:51 AM,62.1,54.0,75,29.99,-9999.0,North,6.9,-,N/A,,Unknown,350,2013-09-05 17:51:00
12:51 PM,66.9,53.1,61,29.94,-9999.0,North,8.1,-,N/A,,Unknown,360,2013-09-05 18:51:00
1:51 PM,72.0,53.1,51,29.91,-9999.0,North,5.8,-,N/A,,Unknown,360,2013-09-05 19:51:00
2:51 PM,73.9,48.9,41,29.86,-9999.0,SSE,9.2,21.9,N/A,,Unknown,160,2013-09-05 20:51:00
3:51 PM,66.9,46.9,49,29.91,-9999.0,Variable,4.6,-,N/A,,Unknown,0,2013-09-05 21:51:00
4:51 PM,66.0,50.0,56,29.91,-9999.0,SSE,6.9,-,0.01,,Unknown,150,2013-09-05 22:51:00
5:51 PM,70.0,48.0,46,29.90,-9999.0,SSE,11.5,21.9,N/A,,Unknown,150,2013-09-05 23:51:00
6:51 PM,66.9,50.0,54,29.88,-9999.0,SE,8.1,-,N/A,,Unknown,140,2013-09-06 00:51:00
7:51 PM,64.9,48.0,54,29.88,-9999.0,SSE,11.5,18.4,N/A,,Unknown,150,2013-09-06 01:51:00
8:51 PM,64.9,48.0,54,29.90,-9999.0,SSE,4.6,-,N/A,,Unknown,160,2013-09-06 02:51:00
9:51 PM,59.0,48.0,67,29.91,-9999.0,SE,5.8,-,N/A,,Unknown,130,2013-09-06 03:51:00
10:51 PM,60.1,48.9,67,29.90,-9999.0,Variable,5.8,-,N/A,,Unknown,0,2013-09-06 04:51:00
11:51 PM,52.0,48.0,86,29.93,-9999.0,Calm,Calm,-,N/A,,Unknown,0,2013-09-06 05:51:00